7 * 24
多渠道服务支持
INTELSAT 2-F3是国际通信卫星组织(ITSO)所属第二代国际通信卫星系列的第三颗卫星,于1967年3月23日发射升空。该卫星由休斯空间与通信公司制造,发射质量162千克,设计寿命3年,配置2路C频段转发器,运行于地球静止轨道,主要为全球提供跨洋通信与广播电视传输服务,目前仍在轨运行,是早期全球卫星通信网络发展的重要参与者。
(ITSO)
| 数据来源 | 国际轨道数据 |
| 星历时间: | 2026-09-11T07:36:19+0800 11小时前 查看轨道信息 |
| 半长轴: | 42131.653km |
| 偏心率: | 0.0017469 |
| 轨道倾角: | 4.288° |
| 近地点辐角 | 222.351° |
| 升交点赤经 | 67.301° |
| 平近点角 | 114.912° |
| 近地点: | 35679.916km |
| 远地点: | 35827.116km |
| 周期: | 1434.407分钟 |
| 每日圈数: | 1.003899 |